Location: ????????
(56.1167°N, 38.6333°E)
Time: 11:05:59
(UTC+00:00)

SPOT 1/Viking Rocket - Pass Details

Date: 18 November 2025
Orbit: 773 x 789 km, 98.2° (Epoch: 10 December)

Event Time Altitude Azimuth Distance (km) Brightness Sun altitude
Rises 15:00:08 0° 152° (SSE) 3,264 6.6 -14.5°
Reaches altitude 10° 15:02:27 10° 150° (SSE) 2,342 5.8 -14.9°
Maximum altitude 15:07:35 67° 69° (ENE) 856 3.5 -15.6°
Drops below altitude 10° 15:12:46 10° 348° (NNW) 2,365 6.1 -16.3°
Sets 15:15:06 0° 346° (NNW) 3,299 6.8 -16.6°
